When you browse on this site, cookies collect data to enhance your experience and personalize the content and advertising you see.
Visit our Privacy Policy to learn more. By continuing to use the site, you agree to this use of cookies and data.
  • en France
  • Liste des pays
  • À 7 jours
  • Température de l'eau
  • Carte satellitaire
  • Carte météo
  • Widgets météo
  • user-avatar
    Se connecter

    Météo par heure à Albena

    Ce jour, 26 Avril, Vendredi

    Heure Température Précipitation Vent Pression Humidité
    00:00 +9°C° 0 mm 1 m/s 751 mmHg 88%
    01:00 +9°C° 0 mm 1 m/s 751 mmHg 88%
    02:00 +9°C° 0 mm 1 m/s 751 mmHg 88%
    03:00 +9°C° 0 mm 1 m/s 751 mmHg 88%
    04:00 +9°C° 0 mm 1 m/s 750 mmHg 88%
    05:00 +9°C° 0 mm 1 m/s 750 mmHg 88%
    06:00 +11°C° 0 mm 1 m/s 750 mmHg 83%
    07:00 +12°C° 0 mm 2 m/s 750 mmHg 77%
    08:00 +14°C° 0 mm 2 m/s 750 mmHg 72%
    09:00 +15°C° 0 mm 2 m/s 750 mmHg 68%
    10:00 +16°C° 0 mm 3 m/s 750 mmHg 64%
    11:00 +17°C° 0 mm 3 m/s 750 mmHg 61%
    12:00 +17°C° 0 mm 3 m/s 750 mmHg 60%
    13:00 +18°C° 0 mm 3 m/s 750 mmHg 59%
    14:00 +18°C° 0 mm 4 m/s 750 mmHg 58%
    15:00 +17°C° 0 mm 3 m/s 749 mmHg 60%
    16:00 +16°C° 0 mm 3 m/s 749 mmHg 62%
    17:00 +14°C° 0 mm 3 m/s 749 mmHg 64%
    18:00 +13°C° 0 mm 3 m/s 749 mmHg 69%
    19:00 +12°C° 0 mm 2 m/s 749 mmHg 73%
    20:00 +9°C° 0 mm 2 m/s 749 mmHg 78%
    21:00 +9°C° 0 mm 2 m/s 749 mmHg 79%
    22:00 +10°C° 0 mm 1 m/s 749 mmHg 79%
    23:00 +10°C° 0 mm 1 m/s 749 mmHg 80%

    Demain, 27 Avril, Samedi

    Heure Température Précipitation Vent Pression Humidité
    00:00 +10°C° 0 mm 1 m/s 748 mmHg 80%
    01:00 +9°C° 0 mm 1 m/s 748 mmHg 81%
    02:00 +9°C° 0 mm 1 m/s 748 mmHg 82%
    03:00 +9°C° 0 mm 1 m/s 748 mmHg 82%
    04:00 +9°C° 0 mm 1 m/s 747 mmHg 83%
    05:00 +8°C° 0 mm 2 m/s 747 mmHg 84%
    06:00 +10°C° 0 mm 2 m/s 747 mmHg 79%
    07:00 +12°C° 0 mm 2 m/s 747 mmHg 75%
    08:00 +14°C° 0 mm 2 m/s 747 mmHg 71%
    09:00 +14°C° 0 mm 3 m/s 747 mmHg 68%
    10:00 +16°C° 0 mm 3 m/s 747 mmHg 64%
    11:00 +17°C° 0 mm 4 m/s 747 mmHg 61%
    12:00 +17°C° 0 mm 4 m/s 746 mmHg 61%
    13:00 +18°C° 0 mm 4 m/s 746 mmHg 60%
    14:00 +18°C° 0 mm 4 m/s 745 mmHg 60%
    15:00 +17°C° 0 mm 4 m/s 745 mmHg 62%
    16:00 +15°C° 0 mm 4 m/s 744 mmHg 64%
    17:00 +14°C° 0 mm 3 m/s 744 mmHg 66%
    18:00 +13°C° 0 mm 3 m/s 744 mmHg 70%
    19:00 +12°C° 0 mm 3 m/s 744 mmHg 75%
    20:00 +10°C° 0 mm 2 m/s 744 mmHg 80%
    21:00 +10°C° 0 mm 2 m/s 743 mmHg 80%
    22:00 +10°C° 0 mm 2 m/s 743 mmHg 81%
    23:00 +10°C° 0 mm 3 m/s 743 mmHg 81%

    Après-demain, 28 Avril, Dimanche

    Heure Température Précipitation Vent Pression Humidité
    00:00 +10°C° 0 mm 2 m/s 743 mmHg 82%
    01:00 +10°C° 0 mm 2 m/s 743 mmHg 82%
    02:00 +10°C° 0 mm 2 m/s 742 mmHg 82%
    03:00 +11°C° 0 mm 1 m/s 742 mmHg 81%
    04:00 +10°C° 0 mm 1 m/s 742 mmHg 81%
    05:00 +10°C° 0 mm 1 m/s 742 mmHg 81%
    06:00 +12°C° 0 mm 1 m/s 742 mmHg 80%
    07:00 +14°C° 0 mm 1 m/s 742 mmHg 78%
    08:00 +15°C° 0 mm 1 m/s 742 mmHg 77%
    09:00 +17°C° 0 mm 2 m/s 742 mmHg 74%
    10:00 +18°C° 0 mm 2 m/s 743 mmHg 71%
    11:00 +19°C° 0 mm 2 m/s 743 mmHg 69%
    12:00 +20°C° 0 mm 2 m/s 743 mmHg 66%
    13:00 +20°C° 0 mm 2 m/s 742 mmHg 64%
    14:00 +20°C° 0 mm 2 m/s 742 mmHg 62%
    15:00 +20°C° 0.2 mm 2 m/s 742 mmHg 65%
    16:00 +20°C° 0.2 mm 2 m/s 742 mmHg 67%
    17:00 +19°C° 0.2 mm 2 m/s 741 mmHg 69%
    18:00 +18°C° 0.1 mm 2 m/s 742 mmHg 73%
    19:00 +17°C° 0.1 mm 2 m/s 742 mmHg 77%
    20:00 +15°C° 0.1 mm 2 m/s 742 mmHg 81%
    21:00 +14°C° 0 mm 3 m/s 742 mmHg 83%
    22:00 +13°C° 0 mm 3 m/s 743 mmHg 84%
    23:00 +12°C° 0 mm 4 m/s 743 mmHg 86%

    29 Avril, Lundi

    Heure Température Précipitation Vent Pression Humidité
    00:00 +12°C° 0 mm 4 m/s 743 mmHg 86%
    01:00 +11°C° 0 mm 4 m/s 743 mmHg 87%
    02:00 +11°C° 0 mm 4 m/s 743 mmHg 87%
    03:00 +10°C° 0 mm 4 m/s 743 mmHg 87%
    04:00 +10°C° 0 mm 4 m/s 743 mmHg 87%
    05:00 +8°C° 0 mm 4 m/s 743 mmHg 86%
    06:00 +11°C° 0 mm 4 m/s 743 mmHg 81%
    07:00 +12°C° 0 mm 5 m/s 744 mmHg 76%
    08:00 +13°C° 0 mm 5 m/s 744 mmHg 72%
    09:00 +14°C° 0 mm 5 m/s 744 mmHg 68%
    10:00 +16°C° 0 mm 5 m/s 744 mmHg 65%
    11:00 +18°C° 0 mm 4 m/s 744 mmHg 61%
    12:00 +18°C° 0 mm 4 m/s 744 mmHg 59%
    13:00 +19°C° 0 mm 4 m/s 744 mmHg 57%
    14:00 +20°C° 0 mm 4 m/s 743 mmHg 55%
    15:00 +19°C° 0.2 mm 4 m/s 743 mmHg 61%
    16:00 +18°C° 0.2 mm 4 m/s 743 mmHg 67%
    17:00 +17°C° 0.2 mm 4 m/s 742 mmHg 73%
    18:00 +16°C° 0 mm 3 m/s 742 mmHg 78%
    19:00 +14°C° 0 mm 3 m/s 742 mmHg 83%
    20:00 +14°C° 0 mm 2 m/s 743 mmHg 88%
    21:00 +14°C° 0.4 mm 2 m/s 743 mmHg 89%
    22:00 +13°C° 0.4 mm 2 m/s 742 mmHg 90%
    23:00 +13°C° 0.4 mm 1 m/s 742 mmHg 91%

    30 Avril, Mardi

    Heure Température Précipitation Vent Pression Humidité
    00:00 +13°C° 0 mm 2 m/s 742 mmHg 92%
    01:00 +12°C° 0 mm 2 m/s 742 mmHg 93%
    02:00 +12°C° 0 mm 2 m/s 742 mmHg 94%
    03:00 +12°C° 0 mm 2 m/s 741 mmHg 94%
    04:00 +11°C° 0 mm 1 m/s 741 mmHg 93%
    05:00 +11°C° 0 mm 1 m/s 741 mmHg 93%
    06:00 +13°C° 0 mm 1 m/s 741 mmHg 89%
    07:00 +14°C° 0 mm 1 m/s 741 mmHg 85%
    08:00 +15°C° 0 mm 2 m/s 741 mmHg 81%
    09:00 +16°C° 0 mm 2 m/s 742 mmHg 79%
    10:00 +17°C° 0 mm 3 m/s 742 mmHg 76%
    11:00 +18°C° 0 mm 3 m/s 742 mmHg 74%
    12:00 +18°C° 0 mm 3 m/s 741 mmHg 73%
    13:00 +18°C° 0 mm 2 m/s 741 mmHg 71%
    14:00 +19°C° 0 mm 1 m/s 741 mmHg 70%
    15:00 +19°C° 0.1 mm 1 m/s 740 mmHg 70%
    16:00 +19°C° 0.1 mm 1 m/s 740 mmHg 70%
    17:00 +19°C° 0.1 mm 1 m/s 740 mmHg 69%
    18:00 +18°C° 0.1 mm 1 m/s 740 mmHg 74%
    19:00 +16°C° 0.1 mm 1 m/s 740 mmHg 79%
    20:00 +15°C° 0.1 mm 1 m/s 740 mmHg 84%
    21:00 +15°C° 1.2 mm 1 m/s 740 mmHg 87%
    22:00 +14°C° 1.2 mm 1 m/s 740 mmHg 90%
    23:00 +14°C° 1.2 mm 1 m/s 740 mmHg 94%

    1 Mai, Mercredi

    Heure Température Précipitation Vent Pression Humidité
    00:00 +12°C° 0.4 mm 3 m/s 740 mmHg 93%
    01:00 +12°C° 0.4 mm 4 m/s 740 mmHg 93%
    02:00 +12°C° 0.4 mm 5 m/s 740 mmHg 92%
    03:00 +10°C° 0 mm 5 m/s 740 mmHg 92%
    04:00 +10°C° 0 mm 4 m/s 740 mmHg 92%
    05:00 +8°C° 0 mm 4 m/s 740 mmHg 92%
    06:00 +9°C° 0 mm 5 m/s 740 mmHg 88%
    07:00 +10°C° 0 mm 5 m/s 741 mmHg 83%
    08:00 +13°C° 0 mm 6 m/s 741 mmHg 79%
    09:00 +14°C° 0 mm 6 m/s 741 mmHg 73%
    10:00 +15°C° 0 mm 7 m/s 741 mmHg 68%
    11:00 +16°C° 0 mm 7 m/s 741 mmHg 63%
    12:00 +17°C° 0.1 mm 7 m/s 741 mmHg 62%
    13:00 +17°C° 0.1 mm 6 m/s 741 mmHg 61%
    14:00 +17°C° 0.1 mm 6 m/s 741 mmHg 60%
    15:00 +17°C° 0.2 mm 6 m/s 741 mmHg 62%
    16:00 +17°C° 0.2 mm 6 m/s 741 mmHg 65%
    17:00 +16°C° 0.2 mm 5 m/s 741 mmHg 68%
    18:00 +15°C° 0 mm 4 m/s 741 mmHg 74%
    19:00 +13°C° 0 mm 3 m/s 742 mmHg 81%
    20:00 +11°C° 0 mm 3 m/s 742 mmHg 87%
    21:00 +12°C° 0 mm 2 m/s 742 mmHg 88%
    22:00 +10°C° 0 mm 2 m/s 743 mmHg 89%
    23:00 +11°C° 0 mm 1 m/s 743 mmHg 90%
    Voir plus